Location: Unspecified
(0.0000°N, 0.0000°E)
Time: 03:44:08
(UTC+00:00)

Vanguard 1 - Pass Details

Date: 19 December 2023
Orbit: 653 x 3826 km, 34.3° (Epoch: 22 February)

Event Time Altitude Azimuth Distance (km) Brightness Sun altitude
Rises 09:50:38 0° 226° (SW) 3,247 12.7 51.4°
Reaches altitude 10° 09:53:15 10° 221° (SW) 2,157 12.0 51.9°
Maximum altitude 09:57:44 52° 144° (SE) 805 12.4 52.8°
Drops below altitude 10° 10:02:16 10° 67° (ENE) 2,171 12.2 53.6°
Sets 10:04:54 0° 62° (ENE) 3,271 12.9 54.1°
